Home   Weather   Phuket   Past weeks

Flag for Thailand Past Weather in Phuket, Thailand — Yesterday and Last 2 Weeks

Now
81 °F

Broken clouds.


Feels Like: 85 °F
Forecast: 76 / 82 °F
Wind: 9 mph from East

Location: Phuket Airport

Current Time: Jan 20, 2017 at 4:57:15 pm

Latest Report: Jan 20, 2017 at 4:00 pm


Visibility: 6 mi

Pressure: 29.80 "Hg

Humidity: 74%

Dew Point: 72 °F

Location of PhuketLocation

Past Weather in Phuket — Graph

°F

Phuket Temperature Yesterday

Maximum temperature yesterday: 90 °F (at 1:00 pm)
Minimum temperature yesterday: 77 °F (at 9:00 pm)
Average temperature yesterday: 83 °F

High & Low Weather Summary for the Past Weeks

 TemperatureHumidityPressure
High90 °F (Jan 13, 12:30 pm)94% (Jan 6, 4:00 am)29.95 "Hg (Jan 6, 4:00 am)
Low73 °F (Jan 6, 3:30 am)55% (Jan 12, 1:30 pm)29.62 "Hg (Jan 7, 3:00 pm)
Average80 °F80%29.81 "Hg
* Reported Jan 5 3:00 pm — Jan 20 3:30 pm, Phuket, Weather by CustomWeather, © 2017

Note: Actual official high and low records may vary slightly from our data, if they occured in-between our weather recording intervals... More about our weather records

Advertising

Phuket Weather History for the Previous 24 Hours

Scroll right to see more
 ConditionsComfort  
Time TempWeatherWind HumidityBarometerVisibility
3:30 pm
Fri, Jan 20
81 °FBroken clouds.10 mph74%29.80 "Hg6 mi
3:00 pm81 °FBroken clouds.12 mph79%29.80 "Hg6 mi
2:30 pm82 °FBroken clouds.12 mph74%29.83 "Hg6 mi
2:00 pm82 °FBroken clouds.14 mph74%29.83 "Hg5 mi
1:30 pm81 °FBroken clouds.10 mph79%29.86 "Hg5 mi
1:00 pm81 °FBroken clouds.9 mph79%29.86 "Hg5 mi
12:30 pm82 °FBroken clouds.7 mph79%29.89 "Hg5 mi
12:00 pm81 °FBroken clouds.10 mph79%29.92 "Hg5 mi
11:30 am81 °FBroken clouds.9 mph79%29.92 "Hg5 mi
11:00 am81 °FLight rain. Broken clouds.8 mph79%29.92 "Hg4 mi
10:30 am79 °FLight rain. Broken clouds.6 mph89%29.95 "Hg4 mi
10:00 am79 °FLight rain. Broken clouds.8 mph84%29.92 "Hg4 mi
9:30 am79 °FLight rain. Broken clouds.7 mph84%29.92 "Hg4 mi
9:00 am79 °FBroken clouds.6 mph84%29.92 "Hg4 mi
8:30 am79 °FLight rain. Broken clouds.9 mph84%29.92 "Hg4 mi
8:00 am79 °FBroken clouds.6 mph84%29.89 "Hg5 mi
7:30 am79 °FBroken clouds.5 mph84%29.86 "Hg5 mi
7:00 am79 °FBroken clouds.6 mph84%29.86 "Hg5 mi
6:30 am79 °FPartly cloudy.6 mph84%29.86 "Hg5 mi
6:00 am79 °FPassing clouds.6 mph79%29.86 "Hg5 mi
5:30 am79 °FPassing clouds.6 mph84%29.83 "Hg5 mi
5:00 am79 °FPassing clouds.No wind84%29.83 "Hg5 mi
4:30 am77 °FPassing clouds.No wind89%29.83 "Hg5 mi
4:00 am77 °FPassing clouds.No wind89%29.83 "Hg5 mi
3:30 am77 °FPassing clouds.No wind89%29.83 "Hg5 mi
3:00 am77 °FPassing clouds.3 mph83%29.86 "Hg5 mi
2:30 am75 °FPassing clouds.No wind89%29.92 "Hg5 mi
2:00 am75 °FPassing clouds.No wind89%29.92 "Hg5 mi
1:30 am77 °FPassing clouds.2 mph83%29.92 "Hg5 mi
1:00 am77 °FPassing clouds.2 mph83%29.95 "Hg5 mi
12:30 am75 °FPassing clouds.No wind94%29.95 "Hg5 mi
12:00 am77 °FPassing clouds.2 mph89%29.95 "Hg5 mi
11:30 pm
Thu, Jan 19
77 °FPassing clouds.2 mph89%29.95 "Hg5 mi
11:00 pm77 °FPassing clouds.1 mph89%29.95 "Hg5 mi
10:30 pm77 °FPassing clouds.1 mph89%29.95 "Hg5 mi
10:00 pm77 °FPartly cloudy.No wind89%29.95 "Hg5 mi
9:30 pm77 °FThunderstorms. Partly cloudy.2 mph89%29.92 "Hg5 mi
9:00 pm77 °FPartly cloudy.3 mph89%29.92 "Hg5 mi
8:30 pm79 °FPassing clouds.3 mph89%29.89 "Hg5 mi
8:00 pm81 °FPartly cloudy.1 mph79%29.92 "Hg5 mi
7:30 pm81 °FPartly cloudy.1 mph79%29.89 "Hg5 mi
7:00 pm81 °FPartly cloudy.6 mph79%29.89 "Hg5 mi
6:30 pm82 °FPartly cloudy.3 mph74%29.86 "Hg5 mi
6:00 pm84 °FBroken clouds.5 mph70%29.80 "Hg5 mi
5:30 pm86 °FBroken clouds.7 mph66%29.80 "Hg5 mi
5:00 pm88 °FScattered showers. Broken clouds.9 mph62%29.80 "Hg5 mi
4:30 pm88 °FScattered showers. Broken clouds.9 mph59%29.77 "Hg5 mi
4:00 pm90 °FBroken clouds.9 mph55%29.77 "Hg6 mi
Weather by CustomWeather, © 2017

See weather overviewHow to use our weather pages